Location: Turtle Rock Observatory
(36.6913°N, 81.9708°W)
Time: 11:01:23
(UTC-05:00)

Daily predictions for brighter satellites

Satellite Brightness Start Highest point End
(mag) Time Altitude Azimuth Time Altitude Azimuth Time Altitude Azimuth
Cosmos 1048 Rocket 4.5 18:33:16 10° S 18:38:13 41° ESE 18:43:09 10° NNE
Cosmos 2297 Rocket 3.0 18:33:52 10° SW 18:39:25 57° WNW 18:45:01 10° NNE
Tiangong 2 1.3 18:39:09 10° WNW 18:42:19 73° SSW 18:45:28 10° ESE
ERS-2 3.5 18:40:05 10° ESE 18:42:47 20° ENE 18:45:29 10° NNE
FREGAT/IRIS 4.3 18:41:11 10° ESE 18:43:02 16° ENE 18:44:54 10° NNE
H-2A R/B 3.5 18:40:22 10° SE 18:43:50 31° ENE 18:47:18 10° N
SPOT 3 Rocket 3.7 18:41:51 10° SSE 18:46:53 54° ENE 18:51:59 10° N
SJ-6B 4.4 18:46:06 10° ESE 18:48:16 15° ENE 18:50:28 10° NNE
Cosmos 44 Rocket 3.6 18:43:58 10° NNW 18:48:52 49° ENE 18:53:51 10° SE
MOS 1 4.3 18:45:57 10° SSE 18:51:36 79° ENE 18:57:17 10° N
CZ-4C R/B 4.4 18:50:27 10° N 18:54:19 15° NE 18:58:24 10° ENE
Cosmos 1420 Rocket 4.1 18:50:17 10° N 18:55:31 59° ENE 19:00:44 10° SSE
Aureole 3 4.1 18:50:09 10° S 18:56:11 87° W 19:00:53 10° N
Meteor 1-20 Rocket 4.3 18:50:51 10° S 18:56:29 67° E 19:02:14 10° NNE
Cosmos 405 4.5 18:55:48 10° SSW 18:59:07 40° WNW 19:02:27 10° N
Cosmos 1378 Rocket 3.7 18:57:14 10° N 19:01:35 53° E 19:05:55 10° SSE
Cosmos 1812 2.8 18:58:01 10° N 19:01:54 83° W 19:05:46 10° S
Meteor 1-14 Rocket 4.4 18:56:13 10° S 19:01:59 90° W 19:07:56 10° N
MOS 1-B Rocket 4.3 18:58:22 10° S 19:04:49 74° WSW 19:10:35 10° NNW
Okean 1 3.8 19:01:21 10° N 19:05:04 37° E 19:08:46 10° SSE
ALOS 3.1 19:01:16 10° S 19:05:49 56° W 19:10:26 10° NNW
Cosmos 2263 Rocket 3.5 19:03:40 10° SE 19:07:08 17° E 19:09:12 14° ENE
Cosmos 1782 Rocket 3.8 19:05:12 10° SSE 19:09:27 46° E 19:13:42 10° NNE
SeaSat 1 3.7 19:07:34 14° E 19:10:07 21° NE 19:13:46 10° N
CZ-4 R/B 4.4 19:07:23 10° SW 19:10:28 21° W 19:13:32 10° NW
Cosmos 44 3.6 19:06:01 10° NNW 19:11:07 79° WSW 19:16:26 10° SSE
Tsikada Rocket 4.3 19:07:59 10° SSE 19:14:03 47° E 19:20:08 10° NNE
Cosmos 1602 4.1 19:10:46 10° SSE 19:14:25 39° E 19:18:04 10° NNE
USA 215 3.4 19:09:23 10° NE 19:15:45 53° SE 19:22:05 10° SSW
Sich 1 Rocket 3.5 19:15:20 10° S 19:19:50 85° E 19:24:20 10° N
CZ-3C R/B 3.8 19:18:24 10° S 19:21:04 14° SE 19:24:32 11° ESE
CZ-3 Stage 3 3.2 19:19:36 10° W 19:23:33 29° SSW 19:25:20 15° SE
Envisat 3.6 19:19:39 10° SE 19:24:14 35° ENE 19:28:49 10° N
Meteor 1-18 Rocket 4.2 19:20:03 10° N 19:25:38 85° W 19:31:10 10° S
Cosmos 1464 Rocket 4.1 19:22:30 10° N 19:28:38 81° W 19:34:46 10° S
Cosmos 2227 4.1 19:25:56 10° SSW 19:31:38 74° ESE 19:37:21 10° NNE
Meteor 1-4 Rocket 2.8 19:28:22 10° SSE 19:31:39 39° E 19:33:28 22° NE
HJ-1C 3.4 19:28:45 10° SSE 19:32:07 60° ENE 19:35:30 10° N
Okean 2 Rocket 3.1 19:28:31 10° SSE 19:32:45 51° E 19:37:02 10° NNE
Meteor 2-4 Rocket 4.3 19:27:41 10° N 19:32:53 34° ENE 19:36:06 19° SE
Cosmos 1437 Rocket 2.9 19:31:02 10° SSW 19:35:03 78° W 19:39:11 10° N
Cosmos 494 Rocket 4.1 19:30:22 10° S 19:35:23 50° ESE 19:40:24 10° NNE
Meteor 1-19 Rocket 4.2 19:32:10 10° N 19:37:35 54° E 19:43:01 10° SSE
Thor Agena Rocket 3.4 19:34:11 10° NNE 19:39:14 65° ESE 19:44:13 10° S
Cosmos 1269 Rocket 4.4 19:34:14 10° SSW 19:39:29 68° WNW 19:44:45 10° NNE
USA 32 4.3 19:35:42 10° S 19:40:54 72° W 19:46:09 10° N
Cosmos 1110 Rocket 4.3 19:36:47 10° N 19:41:50 43° ENE 19:43:58 29° ESE
Meteor 1-11 Rocket 3.8 19:36:35 10° SSE 19:41:57 52° E 19:47:27 10° NNE
GPS 2-05 Rocket1 3.4 19:39:02 10° SW 19:41:58 35° SSE 19:41:58 35° SSE
Cosmos 921 Rocket 3.2 19:40:49 10° NNW 19:45:20 76° WSW 19:49:46 10° S
CENTAUR R/B 3.8 19:39:46 10° WSW 19:45:21 39° NW 19:51:41 10° NNE
Gbstr 26 Del rocket 3.1 19:46:26 10° WSW 19:50:06 57° NW 19:51:32 33° NNE
Alouette 2 Rocket 3.2 19:49:44 10° S 19:52:54 55° SE 19:52:54 55° SE
CRYOSAT 2 4.4 19:51:40 10° N 19:56:33 80° W 20:01:23 10° S
Cosmos 2346 Rocket 4.3 19:52:47 10° S 19:59:00 83° E 20:05:11 10° N
Cosmos 1943 3.7 19:54:11 10° N 19:59:20 37° ENE 19:59:20 37° ENE
COSMOS 2455 2.7 20:01:17 10° SSW 20:07:17 83° ESE 20:11:40 20° NNE
Resurs 1-3 4.3 20:12:36 40° NNE 20:12:36 40° NNE 20:15:32 10° N
Cosmos 1331 Rocket 3.9 20:07:31 10° NNW 20:12:51 75° ENE 20:13:40 62° SE
Spot 2 Rocket 4.0 20:15:08 43° NNE 20:15:08 43° NNE 20:18:51 10° N
OAO 2 Rocket 3.1 20:09:18 10° W 20:14:14 73° S 20:14:27 71° SSE
Cosmos 1634 Rocket 3.8 20:10:49 10° N 20:16:58 70° E 20:19:12 41° SSE
Cosmos 1975 Rocket 4.4 20:14:15 10° NNW 20:18:24 39° W 20:22:33 10° SSW
BREEZE-M DEB (TANK) 3.8 20:15:58 10° NW 20:17:02 25° NW 20:17:02 25° NW
Geosat 3.8 20:17:26 54° NNE 20:18:37 85° ESE 20:23:38 10° SSW
Tiangong 2 4.2 20:18:02 10° SW 20:18:39 10° SW 20:18:57 10° SW
SL-16 R/B 4.4 20:14:27 10° NW 20:18:52 24° W 20:23:17 10° SSW
SJ-6B 4.5 20:19:14 10° SSW 20:22:37 32° W 20:26:05 10° NNW
Meteor 1-23 Rocket 4.5 20:18:44 10° N 20:23:34 54° NE 20:23:34 54° NE
Cosmos 2251 Rocket 3.3 20:20:40 10° SSW 20:25:53 90° ESE 20:25:57 88° NNE
Cosmos 2142 Rocket 4.3 20:20:56 10° N 20:27:16 72° E 20:27:52 67° ESE
Resurs 01 Rocket 2.6 20:29:27 40° NNW 20:29:27 40° NNW 20:32:20 10° NNW
ATLAS CENTAUR R/B 3.7 20:29:14 10° NNW 20:30:20 17° N 20:30:20 17° N
Cosmos 1603 4.3 20:32:31 10° NNW 20:38:00 54° WSW 20:39:46 39° SSW
CZ-4C R/B 3.0 20:37:09 10° NNW 20:43:53 57° NE 20:43:53 57° NE
SeaSat 1 3.2 20:47:22 49° WSW 20:47:22 49° WSW 20:52:05 10° NW
Cosmos 2263 Rocket 2.7 20:45:03 10° SW 20:50:29 56° WNW 20:51:05 53° NW
USA 215 4.2 20:56:01 30° NNE 20:58:37 43° NW 21:04:41 10° WSW
USA 267 4.5 21:32:55 33° NNW 21:32:55 33° NNW 21:36:27 10° NW
